FW1286 Weather Reports


Display with metric or nautical units.
time (UTC)temp
F
wind
direction
speed
MPH
gust
MPH
rain 1hr
in
rain 24hr
in
rain mn
in
humidity
%
barometer
mb
20260902043732 81 57 0.0 0.0 0.00 0.00 0.00 73 1013.3
20260902042724 81 57 0.0 1.0 0.00 0.00 0.00 73 1013.3
20260902041732 81 57 0.0 1.0 0.00 0.00 0.00 72 1013.4
20260902040720 82 57 0.0 1.0 0.00 0.00 0.00 72 1013.3
20260902035728 82 57 0.0 1.0 0.00 0.00 0.00 71 1013.2
20260902033604 82 57 0.0 3.0 0.00 0.00 0.00 70 1013.2
20260902032550 83 57 0.0 3.0 0.00 0.00 0.00 69 1013.1
20260902024200 84 57 0.0 1.0 0.00 0.00 0.00 66 1012.5
20260902023218 84 57 0.0 1.0 0.00 0.00 0.00 65 1012.1
20260902022158 84 57 0.0 0.0 0.00 0.00 0.00 65 1012.0
20260902021130 85 57 0.0 0.0 0.00 0.00 0.00 64 1011.9
20260902012709 87 57 0.0 2.0 0.00 0.00 0.00 60 1011.5
20260902011726 88 57 0.0 0.0 0.00 0.00 0.00 59 1011.4
20260902004444 91 57 0.0 4.0 0.00 0.00 0.00 54 1011.3
20260902003505 92 43 1.0 6.0 0.00 0.00 0.00 53 1011.3
20260902001314 93 34 3.0 7.0 0.00 0.00 0.00 52 1011.3
20260902000337 94 37 3.0 7.0 0.00 0.00 0.00 51 1011.4
20260901235339 94 355 3.0 9.0 0.00 0.00 0.00 51 1011.3
20260901234339 95 24 4.0 9.0 0.00 0.00 0.00 50 1011.4
20260901233400 95 38 4.0 10.0 0.00 0.00 0.00 49 1011.3
20260901232423 96 24 4.0 10.0 0.00 0.00 0.00 49 1011.2
20260901231406 96 5 5.0 8.0 0.00 0.00 0.00 49 1011.2
20260901230335 96 17 3.0 9.0 0.00 0.00 0.00 48 1011.3
20260901225327 96 9 4.0 11.0 0.00 0.00 0.00 48 1011.3
20260901224309 96 44 5.0 11.0 0.00 0.00 0.00 48 1011.2
20260901223259 97 305 3.0 7.0 0.00 0.00 0.00 48 1011.1
20260901221203 96 77 5.0 12.0 0.00 0.00 0.00 49 1011.3
20260901220216 97 350 6.0 12.0 0.00 0.00 0.00 48 1011.3
20260901215225 97 22 5.0 10.0 0.00 0.00 0.00 48 1011.3
20260901214159 97 85 4.0 8.0 0.00 0.00 0.00 46 1011.3
20260901213217 97 110 3.0 8.0 0.00 0.00 0.00 46 1011.3
20260901212219 97 124 3.0 9.0 0.00 0.00 0.00 46 1011.4
20260901210051 97 117 3.0 8.0 0.00 0.00 0.00 49 1011.8
20260901202831 96 344 3.0 10.0 0.00 0.00 0.00 49 1012.3
20260901201758 96 65 2.0 10.0 0.00 0.00 0.00 50 1012.4
20260901200753 95 35 3.0 9.0 0.00 0.00 0.00 52 1012.7
20260901195741 96 319 4.0 8.0 0.00 0.00 0.00 51 1012.8
20260901194747 95 66 3.0 10.0 0.00 0.00 0.00 50 1012.9
20260901193811 95 71 4.0 10.0 0.00 0.00 0.00 50 1012.9
20260901192739 95 134 4.0 10.0 0.00 0.00 0.00 51 1013.0
20260901191759 95 79 5.0 10.0 0.00 0.00 0.00 51 1013.3
20260901185718 94 107 3.0 8.0 0.00 0.00 0.00 54 1013.7
20260901184733 93 98 2.0 6.0 0.00 0.00 0.00 55 1013.9
20260901183734 94 5 3.0 11.0 0.00 0.00 0.00 54 1014.1
20260901182757 93 32 1.0 10.0 0.00 0.00 0.00 54 1014.2
20260901181748 92 281 2.0 4.0 0.00 0.00 0.00 56 1014.3
20260901180736 94 90 1.0 11.0 0.00 0.00 0.00 55 1014.5
20260901174630 92 71 4.0 9.0 0.00 0.00 0.00 60 1014.7
20260901173654 91 338 3.0 8.0 0.00 0.00 0.00 60 1014.9
20260901171510 91 94 2.0 7.0 0.00 0.00 0.00 61 1015.2
20260901170524 91 78 2.0 7.0 0.00 0.00 0.00 61 1015.3
20260901165507 90 28 2.0 7.0 0.00 0.00 0.00 61 1015.4
20260901164521 90 90 2.0 6.0 0.00 0.00 0.00 62 1015.5
20260901161252 88 63 2.0 6.0 0.00 0.00 0.00 66 1015.8
20260901160224 86 105 2.0 4.0 0.00 0.00 0.00 68 1015.8
20260901155217 87 164 2.0 6.0 0.00 0.00 0.00 67 1015.7
20260901154143 85 101 1.0 3.0 0.00 0.00 0.00 71 1015.7
20260901153122 85 219 1.0 4.0 0.00 0.00 0.00 74 1015.7
20260901152144 84 157 1.0 6.0 0.00 0.00 0.00 74 1015.7
20260901151132 83 210 2.0 7.0 0.00 0.00 0.00 79 1015.8
20260901150139 83 254 1.0 7.0 0.00 0.00 0.00 79 1015.8
20260901144015 82 176 2.0 6.0 0.00 0.00 0.00 82 1015.9
20260901143011 81 161 3.0 6.0 0.00 0.00 0.00 83 1016.0
20260901140914 81 190 0.0 0.0 0.00 0.00 0.00 84 1016.1
20260901135932 80 61 0.0 0.0 0.00 0.00 0.00 85 1016.0
20260901134939 79 179 0.0 0.0 0.00 0.00 0.00 86 1015.8
20260901133945 79 153 0.0 0.0 0.00 0.00 0.00 87 1015.9
20260901131829 75 153 0.0 0.0 0.00 0.00 0.00 94 1015.8
20260901130803 74 153 0.0 0.0 0.00 0.00 0.00 94 1015.6
20260901125803 73 153 0.0 0.0 0.00 0.00 0.00 94 1015.5
20260901124801 72 153 0.0 0.0 0.00 0.00 0.00 93 1015.5
20260901123805 72 153 0.0 0.0 0.00 0.00 0.00 92 1015.2
20260901122813 72 153 0.0 0.0 0.00 0.00 0.00 92 1015.2
20260901121823 72 153 0.0 0.0 0.00 0.00 0.00 92 1015.0
20260901120828 73 153 0.0 0.0 0.00 0.00 0.00 92 1015.0
20260901115758 73 153 0.0 0.0 0.00 0.00 0.00 91 1014.9
20260901114743 73 153 0.0 0.0 0.00 0.00 0.00 91 1014.9
20260901113727 73 153 0.0 0.0 0.00 0.00 0.00 91 1014.8
20260901112701 73 153 0.0 0.0 0.00 0.00 0.00 91 1014.8
20260901111642 74 153 0.0 0.0 0.00 0.00 0.00 90 1014.9
20260901110648 74 153 0.0 0.0 0.00 0.00 0.00 89 1014.8
20260901105620 74 153 0.0 0.0 0.00 0.00 0.00 89 1014.7
20260901104621 75 153 0.0 0.0 0.00 0.00 0.00 89 1014.8
20260901103550 75 153 0.0 0.0 0.00 0.00 0.00 89 1014.7
20260901102550 75 153 0.0 0.0 0.00 0.00 0.00 88 1014.6
20260901101540 75 153 0.0 0.0 0.00 0.00 0.00 88 1014.6
20260901095500 76 153 0.0 0.0 0.00 0.00 0.00 87 1014.6
20260901094428 76 153 0.0 0.0 0.00 0.00 0.00 86 1014.6
20260901093404 76 153 0.0 0.0 0.00 0.00 0.00 86 1014.6
20260901092349 77 153 0.0 0.0 0.00 0.00 0.00 85 1014.7
20260901091340 77 153 0.0 0.0 0.00 0.00 0.00 84 1014.7
20260901090330 78 153 0.0 0.0 0.00 0.00 0.00 84 1014.6
20260901085312 78 153 0.0 0.0 0.00 0.00 0.00 83 1014.5
20260901084306 78 153 0.0 1.0 0.00 0.00 0.00 83 1014.4
20260901083242 78 153 0.0 3.0 0.00 0.00 0.00 83 1014.3
20260901082226 79 153 0.0 4.0 0.00 0.00 0.00 82 1014.3
20260901081225 79 153 0.0 4.0 0.00 0.00 0.00 81 1014.5
20260901080237 79 110 0.0 4.0 0.00 0.00 0.00 81 1014.5
20260901075203 80 126 0.0 3.0 0.00 0.00 0.00 80 1014.5
20260901074142 80 106 1.0 5.0 0.00 0.00 0.00 80 1014.5
20260901073119 80 90 1.0 5.0 0.00 0.00 0.00 79 1014.6
20260901072127 80 109 2.0 6.0 0.00 0.00 0.00 79 1014.6
20260901071135 81 106 2.0 6.0 0.00 0.00 0.00 78 1014.6
20260901070143 81 116 0.0 4.0 0.00 0.00 0.00 77 1014.6
20260901065113 81 104 2.0 7.0 0.00 0.00 0.00 77 1014.6
20260901064107 81 129 3.0 8.0 0.00 0.00 0.00 76 1014.5
20260901063041 82 96 2.0 8.0 0.00 0.00 0.00 76 1014.4
20260901062039 82 132 2.0 5.0 0.00 0.00 0.00 75 1014.1
20260901054659 82 118 2.0 5.0 0.00 0.00 0.00 72 1014.1
20260901053647 83 123 2.0 6.0 0.00 0.00 0.00 71 1014.0
20260901052626 83 103 2.0 6.0 0.00 0.00 0.00 71 1014.0
20260901051611 83 93 2.0 6.0 0.00 0.00 0.00 70 1013.9
20260901050546 83 105 2.0 6.0 0.00 0.00 0.00 69 1013.9
20260901045515 84 113 3.0 9.0 0.00 0.00 0.00 69 1013.8
20260901044444 84 80 3.0 9.0 0.00 0.00 0.00 68 1013.8